[[[{"header":{"parameterUnit":"kt","parameterCategory":2,"dx":1,"dy":1,"la1":30.253999710083008,"la2":30.299108505249023,"lo1":-89.0895004272461,"lo2":-89.04439544677734,"nx":28,"ny":28,"refTime":"2022-10-03T21:00:00:Z","depth":0,"parameterNumber":1,"parameterNumberName":"U-component_of_WINDS"},"data":[-11.8039,-11.8198,-11.8186,-11.8361,-11.8378,-11.8494,-11.8531,-11.8576,-11.8608,-11.8744,-11.8818,-11.8819,-11.8842,-11.8926,-11.9004,-11.9002,-11.9034,-11.9103,-11.9087,-11.8799,-11.8758,-11.8718,-11.8678,-11.9111,-11.9112,-11.9385,-11.9388,-11.939,-11.7833,-11.7853,-11.7942,-11.8018,-11.8094,-11.8021,-11.8074,-11.8141,-11.8246,-11.8287,-11.8359,-11.8475,-11.8564,-11.8564,-11.8646,-11.8717,-11.8685,-11.874,-11.8732,-11.8736,-11.8429,-11.8387,-11.8765,-11.8765,-11.8765,-11.8765,-11.8765,-11.8765,-11.7453,-11.755,-11.7587,-11.7683,-11.7717,-11.7768,-11.7855,-11.7854,-11.7938,-11.8023,-11.7987,-11.8104,-11.8139,-11.8228,-11.8253,-11.8342,-11.8276,-11.833,-11.8343,-11.8356,-11.8373,-11.7977,-11.8355,-11.8354,-11.8353,-11.8352,-11.8351,0,-11.7169,-11.7151,-11.7234,-11.7314,-11.7382,-11.7442,-11.7493,-11.7547,-11.7497,-11.7569,-11.767,-11.7725,-11.7833,-11.7924,-11.7996,-11.8009,-11.7934,-11.7926,-11.7962,-11.7978,-11.7986,-11.7981,-11.7478,-11.7913,-11.7909,-11.7906,-11.7904,-11.7902,-11.6781,-11.6895,-11.6926,-11.6987,-11.701,-11.7108,-11.7162,-11.711,-11.717,-11.7223,-11.7309,-11.74,-11.747,-11.7633,-11.7622,-11.7702,-11.7664,-11.7832,-11.7675,-11.7689,-11.7662,-11.7655,-11.7665,-11.7862,-11.7867,-11.7871,-11.7875,0,-11.6563,-11.6537,-11.6708,-11.6725,-11.6733,-11.6855,-11.6867,-11.696,-11.6945,-11.7069,-11.7095,-11.7071,-11.7169,-11.7132,-11.7236,-11.7212,-11.7409,-11.7373,-11.7397,-11.7386,-11.753,-11.7516,-11.8009,-11.807,-11.7625,-11.7629,-11.7633,0,-11.6219,-11.6371,-11.6321,-11.6422,-11.6588,-11.653,-11.6695,-11.6698,-11.6726,-11.6823,-11.6733,-11.6826,-11.6762,-11.685,-11.6816,-11.697,-11.699,-11.6979,-11.6967,-11.6985,-11.6986,-11.7009,-11.6987,-11.694,-11.6938,-11.6935,-11.6933,0,-11.5878,-11.6029,-11.6193,-11.6222,-11.6252,-11.633,-11.6346,-11.6375,-11.6428,-11.6489,-11.6522,-11.6599,-11.6639,-11.6699,-11.6654,-11.6548,-11.6842,-11.6687,-11.683,-11.6832,-11.6892,-11.6888,-11.734,-11.693,-11.6929,-11.6929,-11.6928,0,-11.5592,-11.5659,-11.5902,-11.5924,-11.5965,-11.6073,-11.6143,-11.6226,-11.6263,-11.6248,-11.6296,-11.6228,-11.6361,-11.621,-11.6391,-11.6267,-11.6312,-11.6314,-11.6324,-11.6328,-11.6159,-11.6414,-11.6852,-11.6894,-11.634,-11.6335,-11.6331,0,-11.5208,-11.5444,-11.5394,-11.5625,-11.5728,-11.5618,-11.5736,-11.5771,-11.5761,-11.5844,-11.5831,-11.5927,-11.5806,-11.5829,-11.5925,-11.5914,-11.6077,-11.5892,-11.6008,-11.6013,-11.5998,-11.6402,-11.6474,-11.6762,-11.6268,-11.6274,-11.6279,0,-11.4904,-11.494,-11.4984,-11.5013,-11.5051,-11.5135,-11.5272,-11.5353,-11.5412,-11.5461,-11.5571,-11.5705,-11.5618,-11.5658,-11.5609,-11.5711,-11.5965,-11.5602,-11.5602,-11.5666,-11.6233,-11.6301,-11.635,-11.591,-11.5917,-11.5923,-11.6229,0,-11.4475,-11.4588,-11.4709,-11.4776,-11.4836,-11.4978,-11.4935,-11.5003,-11.4951,-11.4934,-11.5096,-11.5111,-11.5191,-11.5236,-11.5184,-11.5429,-11.538,-11.5286,-11.5131,-11.5398,-11.5497,-11.5538,-11.4988,-11.4983,-11.4979,-11.4975,0,0,-11.4111,-11.4272,-11.421,-11.4339,-11.4385,-11.4265,-11.442,-11.445,-11.4513,-11.4546,-11.4461,-11.4651,-11.4666,-11.4866,-11.4946,-11.4979,-11.5017,-11.4924,-11.5273,-11.5306,-11.5337,-11.5444,-11.5487,-11.4968,-11.4967,-11.4965,-11.4964,0,-11.3943,-11.3966,-11.4121,-11.4151,-11.419,-11.4165,-11.4203,-11.422,-11.4216,-11.4374,-11.4269,-11.436,-11.4513,-11.4541,-11.4576,-11.4902,-11.4814,-11.493,-11.5119,-11.5233,-11.5272,-11.5306,-11.542,-11.5462,-11.4954,-11.4955,-11.4955,0,-11.3633,-11.3648,-11.3718,-11.3817,-11.3841,-11.3949,-11.3778,-11.3899,-11.3977,-11.3834,-11.3991,-11.3993,-11.4028,-11.4224,-11.4309,-11.4233,-11.4632,-11.4498,-11.4522,-11.4529,-11.4637,-11.4684,-11.4725,-11.4177,-11.4174,-11.4172,0,0,-11.3494,-11.3599,-11.3593,-11.3777,-11.38,-11.3764,-11.3816,-11.3767,-11.3802,-11.3817,-11.3815,-11.3851,-11.3938,-11.3997,-11.4076,-11.4298,-11.4298,-11.4404,-11.4441,-11.4471,-11.4494,-11.461,-11.4657,-11.4162,-11.4162,-11.4162,0,0,-11.3425,-11.3427,-11.3368,-11.3576,-11.3615,-11.3618,-11.3731,-11.3657,-11.3724,-11.3701,-11.3622,-11.3628,-11.381,-11.3814,-11.3693,-11.4019,-11.3867,-11.3895,-11.4008,-11.4054,-11.409,-11.4083,-11.3515,0,0,0,0,0,-11.323,-11.3427,-11.3373,-11.3402,-11.3524,-11.3649,-11.3664,-11.3604,-11.3498,-11.359,-11.3577,-11.348,-11.3732,-11.3623,-11.3651,-11.3785,-11.404,-11.4061,-11.4082,-11.428,-11.4328,-11.4369,0,0,0,0,0,0,-11.324,-11.3275,-11.3368,-11.3381,-11.3408,-11.3642,-11.3449,-11.3438,-11.3487,-11.3467,-11.3486,-11.348,-11.343,-11.3605,-11.3631,-11.3759,-11.3506,-11.4048,-11.4067,-11.4083,-11.4296,-11.4336,-11.4369,0,0,0,0,0,-11.3248,-11.3276,-11.3488,-11.3378,-11.3401,-11.3369,-11.3441,-11.343,-11.3467,-11.3446,-11.3437,-11.3417,-11.3435,-11.3453,-11.362,-11.3749,-11.3487,-11.3497,-11.406,-11.4075,-11.4088,-11.4315,0,0,0,0,0,0,-11.3254,-11.3266,-11.3491,-11.3496,-11.3298,-11.3354,-11.3361,-11.3424,-11.3441,-11.3435,-11.3372,-11.3356,-11.3442,-11.3454,-11.3468,-11.3749,-11.3472,-11.3482,-11.3489,-11.4071,-11.4083,-11.4093,0,0,0,0,0,0,-11.3251,-11.3271,-11.3494,-11.3397,-11.339,-11.3342,-11.3348,-11.348,-11.3443,-11.3366,-11.3353,-11.3365,-11.3419,-11.3456,-11.3466,-11.3675,-11.3461,-11.347,-11.3477,-11.3481,-11.4081,-11.409,0,0,0,0,0,0,-11.3258,-11.3276,-11.3395,-11.339,-11.3383,-11.3431,-11.3456,-11.3584,-11.3363,-11.3367,-11.3341,-11.3331,-11.3424,-11.3433,-11.3466,-11.3671,-11.3674,-11.3461,-11.3468,-11.3472,-11.3475,0,0,0,0,0,0,0,-11.3264,-11.3162,-11.3464,-11.3384,-11.3378,-11.354,-11.3541,-11.3542,-11.3361,-11.3352,-11.3343,-11.3335,-11.3406,-11.3416,-11.3427,-11.3668,0,0,-11.346,-11.3465,0,0,0,0,0,0,0,0,-11.3153,-11.3159,-11.3464,-11.3465,-11.3466,-11.354,-11.3541,-11.3542,-11.3359,-11.3352,-11.3345,-11.3339,-11.3408,-11.3417,-11.3426,0,0,0,0,0,0,0,0,0,0,0,0,0,0,0,-11.3464,-11.3465,0,-11.354,-11.3541,-11.3542,-11.3358,-11.3352,-11.3347,-11.3341,-11.3411,-11.3418,-11.3425,0,0,0,0,0,0,0,0,0,0,0,0,0,0,0,0,0,0,0,0,0,0,0,0,0,0,0,0,0,0,0,0,0,0,0,0,0,0,0,0,0,0,0,0,0,0,0,0,0,0,0,0,0,0,0,0,0,0,0,0,0,0,0,0,0,0,0,0,0]}],[{"header":{"parameterUnit":"kt","parameterCategory":2,"dx":1,"dy":1,"la1":30.253999710083008,"la2":30.299108505249023,"lo1":-89.0895004272461,"lo2":-89.04439544677734,"nx":28,"ny":28,"refTime":"2022-10-03T21:00:00:Z","depth":0,"parameterNumber":2,"parameterNumberName":"V-component_of_WINDS"},"data":[1.5962,1.5879,1.5836,1.572,1.566,1.5571,1.5524,1.5457,1.5392,1.5275,1.5198,1.514,1.505,1.4943,1.4853,1.4827,1.4791,1.4797,1.4765,1.4791,1.4791,1.4791,1.481,1.479,1.479,1.4744,1.4744,1.4744,1.5988,1.5931,1.5857,1.5755,1.5689,1.566,1.5573,1.5518,1.5437,1.5354,1.5276,1.5167,1.5072,1.4977,1.4876,1.483,1.4806,1.4806,1.4807,1.4792,1.4819,1.484,1.4827,1.4827,1.4827,1.4827,1.4827,1.4827,1.6024,1.5976,1.589,1.5808,1.5743,1.5673,1.5617,1.5549,1.5471,1.5365,1.5322,1.5226,1.5129,1.4981,1.4917,1.4837,1.4827,1.4809,1.4804,1.48,1.4804,1.4877,1.4817,1.4817,1.4816,1.4816,1.4816,0,1.6036,1.6003,1.5929,1.5841,1.5778,1.5703,1.5626,1.5589,1.5495,1.5434,1.534,1.5276,1.5148,1.505,1.4942,1.4877,1.4831,1.4821,1.4808,1.4828,1.4862,1.4842,1.4887,1.4822,1.4822,1.4821,1.4821,1.4821,1.6068,1.6017,1.5903,1.5856,1.5803,1.5727,1.5671,1.5593,1.5536,1.5424,1.5382,1.5284,1.5201,1.5051,1.4962,1.4863,1.4838,1.4819,1.4822,1.4846,1.4836,1.484,1.4833,1.482,1.482,1.482,1.482,0,1.609,1.6017,1.5922,1.5811,1.5782,1.573,1.5632,1.5577,1.5514,1.5428,1.5402,1.5301,1.5205,1.5119,1.499,1.4947,1.4851,1.4831,1.4886,1.4877,1.485,1.4853,1.4779,1.4765,1.4786,1.4785,1.4785,0,1.6087,1.6021,1.5915,1.5864,1.5787,1.571,1.5634,1.5572,1.549,1.5421,1.5359,1.5295,1.5194,1.5115,1.5051,1.4957,1.4933,1.4893,1.4876,1.4898,1.4903,1.4861,1.4862,1.4842,1.4842,1.4843,1.4843,0,1.6129,1.5993,1.591,1.5866,1.5739,1.5699,1.5643,1.5549,1.5493,1.5405,1.5367,1.5269,1.5214,1.5137,1.5056,1.5061,1.494,1.493,1.4898,1.49,1.4873,1.4876,1.4835,1.4844,1.4844,1.4844,1.4844,0,1.6114,1.6035,1.5924,1.5817,1.5783,1.5725,1.5627,1.5558,1.5462,1.542,1.5349,1.5295,1.5208,1.5205,1.5081,1.5112,1.506,1.5014,1.501,1.4994,1.4993,1.498,1.4952,1.4945,1.4984,1.4985,1.4986,0,1.6181,1.605,1.5984,1.5878,1.5805,1.5743,1.5676,1.5594,1.5532,1.5457,1.5386,1.5298,1.5278,1.5238,1.5189,1.5109,1.507,1.5112,1.4996,1.4993,1.5025,1.4998,1.5016,1.4969,1.5,1.4998,1.4997,0,1.6224,1.6073,1.6059,1.6006,1.5888,1.5825,1.5749,1.5648,1.5602,1.5515,1.5446,1.532,1.5299,1.5233,1.5177,1.513,1.5094,1.5112,1.5108,1.5111,1.4999,1.5016,1.5009,1.5066,1.5064,1.5063,1.5008,0,1.6217,1.6141,1.61,1.5985,1.5923,1.5851,1.5765,1.571,1.5666,1.5602,1.5498,1.5402,1.5293,1.5261,1.5214,1.5135,1.5133,1.5111,1.5098,1.5083,1.5062,1.5054,1.5137,1.5136,1.5135,1.5135,0,0,1.6299,1.6189,1.6117,1.6043,1.5986,1.5921,1.5852,1.5787,1.5657,1.5617,1.5612,1.542,1.5341,1.5223,1.5211,1.5166,1.5142,1.5151,1.5091,1.5087,1.5082,1.5062,1.5055,1.5133,1.5133,1.5133,1.5133,0,1.6279,1.6212,1.6147,1.608,1.5977,1.5913,1.5898,1.5781,1.5736,1.5635,1.5577,1.5502,1.535,1.5274,1.5216,1.5164,1.5121,1.5137,1.5141,1.5087,1.5084,1.508,1.506,1.5055,1.5131,1.5131,1.5131,0,1.6305,1.6224,1.6184,1.6054,1.5985,1.5909,1.5878,1.5799,1.574,1.5664,1.5564,1.5497,1.5387,1.5288,1.5239,1.523,1.5107,1.5128,1.5131,1.5122,1.5064,1.5061,1.5057,1.5103,1.5103,1.5103,0,0,1.6299,1.6228,1.6113,1.6043,1.6004,1.5908,1.5858,1.5808,1.5715,1.5678,1.5592,1.5499,1.5409,1.5351,1.5262,1.5165,1.5134,1.5129,1.513,1.5132,1.5124,1.5067,1.5063,1.5104,1.5104,1.5104,0,0,1.6293,1.616,1.6133,1.6042,1.596,1.5837,1.5795,1.5757,1.5669,1.5666,1.5571,1.5542,1.5447,1.5382,1.541,1.5255,1.5245,1.5236,1.5301,1.5301,1.5302,1.5318,1.5358,0,0,0,0,0,1.6229,1.6178,1.6155,1.6127,1.5959,1.5851,1.5829,1.5753,1.575,1.5719,1.564,1.5598,1.5378,1.54,1.537,1.5339,1.512,1.5117,1.5114,1.5174,1.5175,1.5176,0,0,0,0,0,0,1.6217,1.6183,1.6156,1.6033,1.5995,1.5853,1.583,1.5807,1.5751,1.5745,1.5615,1.5593,1.5523,1.541,1.5384,1.5356,1.5367,1.5118,1.5116,1.5114,1.5174,1.5176,1.5176,0,0,0,0,0,1.6207,1.618,1.5932,1.6033,1.6,1.5888,1.5831,1.5812,1.5767,1.5644,1.5622,1.5715,1.5524,1.5497,1.5394,1.537,1.5384,1.5375,1.5117,1.5115,1.5114,1.5175,0,0,0,0,0,0,1.62,1.6159,1.5923,1.591,1.6048,1.5894,1.5868,1.5817,1.5667,1.5645,1.574,1.5738,1.5525,1.5503,1.5482,1.538,1.5398,1.5389,1.5383,1.5116,1.5114,1.5113,0,0,0,0,0,0,1.6174,1.6149,1.5917,1.5939,1.5928,1.59,1.5877,1.5777,1.5666,1.5771,1.5764,1.5741,1.5553,1.5507,1.5491,1.5337,1.5409,1.54,1.5394,1.539,1.5114,1.5113,0,0,0,0,0,0,1.6162,1.614,1.5942,1.5933,1.5923,1.5768,1.5809,1.564,1.5693,1.5778,1.5695,1.5696,1.5558,1.554,1.5497,1.5351,1.5341,1.5409,1.5403,1.5398,1.5395,0,0,0,0,0,0,0,1.6152,1.6315,1.6003,1.5928,1.592,1.5788,1.5784,1.578,1.5693,1.5694,1.5695,1.5695,1.5461,1.5451,1.5441,1.5362,0,0,1.541,1.5405,0,0,0,0,0,0,0,0,1.6322,1.6316,1.6003,1.6,1.5997,1.5787,1.5784,1.5781,1.5693,1.5694,1.5694,1.5695,1.5458,1.545,1.5442,0,0,0,0,0,0,0,0,0,0,0,0,0,0,0,1.6002,1.6,0,1.5787,1.5784,1.5782,1.5693,1.5694,1.5694,1.5695,1.5456,1.545,1.5443,0,0,0,0,0,0,0,0,0,0,0,0,0,0,0,0,0,0,0,0,0,0,0,0,0,0,0,0,0,0,0,0,0,0,0,0,0,0,0,0,0,0,0,0,0,0,0,0,0,0,0,0,0,0,0,0,0,0,0,0,0,0,0,0,0,0,0,0,0]}]]]